Location: Unspecified
(58.7730°N, 5.8460°E)
Time: 02:48:52
(UTC+02:00)

Okean 3 - Visible Passes

Search period start: 20 April 2015 00:00
Search period end: 30 April 2015 00:00
Orbit: 581 x 606 km, 82.5° (Epoch: 19 April)

Date Brightness Start Highest point End Pass type
(mag) Time Alt. Az. Time Alt. Az. Time Alt. Az.
20 Apr 5.6 01:03:47 10° WSW 01:07:14 23° WNW 01:10:39 10° N visible
20 Apr 5.2 21:59:25 10° ESE 22:01:55 16° E 22:04:35 10° NE visible
20 Apr 3.4 23:35:44 19° SSW 23:38:42 90° SSW 23:43:00 10° NNE visible
21 Apr 5.9 01:13:44 10° W 01:16:44 18° NW 01:19:42 10° N visible
21 Apr 4.9 22:07:53 10° SE 22:11:02 21° E 22:14:17 10° NE visible
21 Apr 3.8 23:44:27 14° SSW 23:48:01 66° WNW 23:52:16 10° N visible
22 Apr 6.2 01:23:51 10° W 01:26:17 14° NW 01:28:38 10° NNW visible
22 Apr 4.5 22:16:34 10° SSE 22:20:10 28° E 22:23:51 10° NNE visible
22 Apr 4.3 23:53:14 10° SW 23:57:21 48° WNW 00:01:31 10° N visible
23 Apr 6.4 01:34:20 10° WNW 01:35:52 11° NW 01:37:17 10° NNW visible
23 Apr 4.1 22:25:25 10° SSE 22:29:19 38° E 22:33:18 10° NNE visible
24 Apr 4.9 00:02:47 10° SW 00:06:43 36° WNW 00:10:43 10° N visible
24 Apr 3.7 22:34:25 10° S 22:38:31 52° E 22:42:41 10° NNE visible
25 Apr 5.4 00:12:27 10° WSW 00:16:09 28° WNW 00:19:51 10° N visible
25 Apr 3.4 22:43:31 10° S 22:47:44 72° E 22:52:02 10° NNE visible
26 Apr 5.9 00:22:14 10° WSW 00:25:36 22° WNW 00:28:57 10° N visible
26 Apr 3.5 22:52:44 10° SSW 22:57:00 83° WNW 23:01:19 10° NNE visible
27 Apr 6.2 00:32:11 10° W 00:35:06 17° NW 00:37:57 10° NNW visible
27 Apr 4.0 23:02:05 10° SSW 23:06:17 61° WNW 23:10:33 10° N visible
28 Apr 6.4 00:42:21 10° W 00:44:38 14° NW 00:46:49 10° NNW visible
28 Apr 4.6 23:11:31 10° SW 23:15:37 45° WNW 23:19:47 10° N visible
29 Apr 6.6 00:52:57 10° WNW 00:54:12 11° NW 00:55:19 10° NNW visible
29 Apr 5.2 23:21:04 10° SW 23:24:59 34° WNW 23:28:56 10° N visible
